Погода в Хьюстоне

США     29°45′49″N   95°21′47″W
темп.,
°C
ветер,
м/с
пор.,
м/с
влажн.,
%
обл.,
%
осадки,
мм/ч
давл.,
гПа
погр.,
м
31 июля, сб
сб3101:00+28ююз24793 0.0 1017253
04:00+27юз23828 0.0 1016202
07:00+27зюз128350 0.0 1017101
10:00+31юз126180 0.0 1018776
13:00+34ююз334591 0.0 10171725
16:00+35ююз4244100 0.0 10151969
19:00+32ю4557100 0.1 1015847
22:00+29ююз476998 0.0 1016393
1 августа, вс
вс101:00+28ююз377557 0.0 1015343
04:00+27юз268198 0.0 1015302
07:00+27зюз148384 0.0 1016259
10:00+30юз23656 0.1 1017882
13:00+35ююз334444 0.1 10161939
16:00+35ююз5342100 0.0 10141941
19:00+32ююз565984 0.0 1013968
22:00+29ююз46694 0.1 1015474
2 августа, пн
пн201:00+28ююз37756 0.1 1015349
04:00+26юз2884100 0.8 1015366
07:00+26юз25896 1.4 1016260
10:00+30з356744 1.6 1016721
13:00+34юз344585 1.6 10151837
16:00+33юз455092 0.1 10131062
19:00+33юз355381 0.1 1012680
22:00+29ююз377699 1.5 1013217
3 августа, вт
вт301:00+27юз2686100 4.9 1013227
04:00+27зюз1282100 5.3 101244
07:00+26зюз268677 11.3 1013122
10:00+29сз347552 3.6 1014474
13:00+31з126699 12.4 1014711
16:00+34св12499 1.8 10121401
19:00+32вюв335590 1.8 1011528
22:00+28ююв127575 0.9 101364
4 августа, ср
ср401:00+27в1281100 1.6 101345
04:00+25в378791 0.0 1013247
07:00+24всв3783100 0.1 1015228
10:00+28всв456325 0.0 1016456
13:00+32в3447100 0.0 10161186
16:00+33всв334019 0.0 10151803
19:00+32в224456 0.0 10141001
22:00+28ю246078 0.0 1015214